Location: Newark
(43.9494°N, 6.8108°E)
Time: 08:01:36
(UTC+00:00)

A-11 Canister half - Pass Details

Date: 27 October 2019
Orbit: 1514 x 1686 km, 47.2° (Epoch: 18 November)

Event Time Altitude Azimuth Distance (km) Brightness Sun altitude
Rises 20:38:43 0° 174° (S) 4,925 - -44.2°
Reaches altitude 10° 20:43:51 10° 153° (SSE) 3,937 - -44.9°
Maximum altitude 20:48:48 15° 123° (ESE) 3,546 - -45.7°
Drops below altitude 10° 20:53:42 10° 93° (E) 3,912 - -46.4°
Sets 20:58:43 0° 72° (ENE) 4,876 - -47.2°
